SAS52R EPWA-EKCH

Flight info

Callsign SAS52R
Flight time 1h 5m
Altitude 36000
Route OLILA L621 GRUDA DCT LUSID DCT ELVIX L975 TIDVU
Aircraft B737/M-SDE2E3FGHIRWXY/LB1

Departure

Time 2026-04-22 11:57
Airport Warsaw Chopin Airport (EPWA)

Arrival

Time 2026-04-22 13:02
Airport Copenhagen Kastrup Airport (EKCH)
Time Latitude Longitude Altitude Speed Heading
2026-04-22 11:29 52.17093 20.97057 338 ft 0 kts 75°
2026-04-22 11:49 52.17092 20.97047 333 ft 4 kts 76°
2026-04-22 11:49 52.17084 20.97006 334 ft 4 kts 71°
2026-04-22 11:49 52.17077 20.96964 333 ft 4 kts 81°
2026-04-22 11:50 52.17077 20.96923 334 ft 4 kts 114°
2026-04-22 11:50 52.17087 20.96901 332 ft 1 kts 151°
2026-04-22 11:50 52.17090 20.96899 332 ft 0 kts 151°
2026-04-22 11:52 52.17089 20.96900 332 ft 1 kts 151°
2026-04-22 11:52 52.17080 20.96908 332 ft 3 kts 151°
2026-04-22 11:53 52.17058 20.96927 335 ft 5 kts 151°
2026-04-22 11:53 52.17025 20.96957 338 ft 6 kts 152°
2026-04-22 11:53 52.16980 20.96996 335 ft 8 kts 152°
2026-04-22 11:53 52.16924 20.97045 337 ft 10 kts 152°
2026-04-22 11:54 52.16857 20.97103 336 ft 12 kts 152°
2026-04-22 11:54 52.16779 20.97170 338 ft 13 kts 152°
2026-04-22 11:54 52.16694 20.97245 335 ft 14 kts 152°
2026-04-22 11:54 52.16610 20.97318 338 ft 13 kts 152°
2026-04-22 11:55 52.16557 20.97431 334 ft 13 kts 115°
2026-04-22 11:55 52.16520 20.97562 335 ft 13 kts 115°
2026-04-22 11:55 52.16484 20.97690 335 ft 12 kts 114°
2026-04-22 11:55 52.16438 20.97803 337 ft 13 kts 162°
2026-04-22 11:56 52.16353 20.97757 338 ft 14 kts 204°
2026-04-22 11:56 52.16313 20.97644 337 ft 14 kts 293°
2026-04-22 11:56 52.16376 20.97418 336 ft 45 kts 294°
2026-04-22 11:56 52.16609 20.96591 338 ft 113 kts 294°
2026-04-22 11:57 52.17003 20.95186 519 ft 148 kts 294°
2026-04-22 11:57 52.17327 20.93606 1213 ft 149 kts 294°
2026-04-22 11:57 52.17725 20.92097 2088 ft 134 kts 297°
2026-04-22 11:57 52.18142 20.90695 2769 ft 145 kts 316°
2026-04-22 11:58 52.19097 20.89865 3172 ft 174 kts 336°
2026-04-22 11:58 52.20283 20.88982 3625 ft 193 kts 334°
2026-04-22 11:58 52.21487 20.88064 4466 ft 193 kts 336°
2026-04-22 11:58 52.22581 20.86765 5328 ft 198 kts 314°
2026-04-22 11:59 52.23524 20.85088 6187 ft 203 kts 316°
2026-04-22 11:59 52.24505 20.83393 7016 ft 206 kts 316°
2026-04-22 11:59 52.25486 20.81708 7828 ft 212 kts 317°
2026-04-22 11:59 52.26575 20.79863 8136 ft 242 kts 320°
2026-04-22 12:00 52.27979 20.78130 8642 ft 259 kts 328°
2026-04-22 12:00 52.29546 20.76489 9473 ft 266 kts 329°
2026-04-22 12:00 52.31099 20.74894 10331 ft 271 kts 329°
2026-04-22 12:00 52.32751 20.73192 10723 ft 294 kts 330°
2026-04-22 12:01 52.34540 20.71333 11119 ft 313 kts 329°
2026-04-22 12:01 52.36395 20.69385 11908 ft 319 kts 329°
2026-04-22 12:01 52.38263 20.67407 12787 ft 322 kts 329°
2026-04-22 12:01 52.40157 20.65394 13667 ft 326 kts 329°
2026-04-22 12:02 52.42076 20.63347 14465 ft 332 kts 330°
2026-04-22 12:02 52.44022 20.61267 15233 ft 337 kts 330°
2026-04-22 12:02 52.46000 20.59149 16039 ft 342 kts 330°
2026-04-22 12:02 52.47983 20.57023 16848 ft 346 kts 330°
2026-04-22 12:03 52.50034 20.54820 17665 ft 352 kts 330°
2026-04-22 12:03 52.52094 20.52606 18457 ft 357 kts 331°
2026-04-22 12:03 52.54183 20.50357 19138 ft 362 kts 331°
2026-04-22 12:03 52.56302 20.48073 19834 ft 366 kts 331°
2026-04-22 12:04 52.58449 20.45756 20534 ft 371 kts 332°
2026-04-22 12:04 52.60619 20.43411 21224 ft 376 kts 332°
2026-04-22 12:04 52.62815 20.41035 21883 ft 380 kts 332°
2026-04-22 12:04 52.65039 20.38626 22544 ft 385 kts 332°
2026-04-22 12:05 52.67294 20.36182 23195 ft 390 kts 332°
2026-04-22 12:05 52.69566 20.33686 23801 ft 397 kts 330°
2026-04-22 12:05 52.71691 20.30684 24317 ft 409 kts 320°
2026-04-22 12:05 52.73621 20.27184 24888 ft 414 kts 317°
2026-04-22 12:06 52.75522 20.23578 25418 ft 419 kts 317°
2026-04-22 12:06 52.77451 20.19944 25888 ft 423 kts 317°
2026-04-22 12:06 52.79421 20.16297 26387 ft 427 kts 318°
2026-04-22 12:06 52.81415 20.12630 26920 ft 431 kts 318°
2026-04-22 12:07 52.83384 20.08864 27422 ft 435 kts 316°
2026-04-22 12:07 52.85333 20.04993 27904 ft 440 kts 316°
2026-04-22 12:07 52.87287 20.01063 28373 ft 444 kts 316°
2026-04-22 12:07 52.89255 19.97101 28844 ft 448 kts 316°
2026-04-22 12:08 52.91244 19.93107 29300 ft 451 kts 316°
2026-04-22 12:08 52.93252 19.89087 29736 ft 454 kts 316°
2026-04-22 12:08 52.95277 19.85038 30176 ft 457 kts 316°
2026-04-22 12:08 52.97306 19.80975 30630 ft 458 kts 316°
2026-04-22 12:09 52.99331 19.76912 31213 ft 454 kts 316°
2026-04-22 12:09 53.01334 19.72889 31812 ft 451 kts 316°
2026-04-22 12:09 53.03304 19.68932 32317 ft 449 kts 316°
2026-04-22 12:09 53.05292 19.64932 32758 ft 449 kts 316°
2026-04-22 12:10 53.07325 19.61040 33257 ft 444 kts 320°
2026-04-22 12:10 53.09456 19.57356 33736 ft 440 kts 321°
2026-04-22 12:10 53.11617 19.53761 34174 ft 439 kts 322°
2026-04-22 12:10 53.13778 19.50179 34531 ft 438 kts 321°
2026-04-22 12:11 53.15928 19.46573 34863 ft 438 kts 321°
2026-04-22 12:11 53.18057 19.42959 35235 ft 436 kts 320°
2026-04-22 12:11 53.20176 19.39336 35541 ft 437 kts 320°
2026-04-22 12:11 53.22295 19.35705 35816 ft 437 kts 320°
2026-04-22 12:12 53.24369 19.31984 36106 ft 439 kts 317°
2026-04-22 12:12 53.26402 19.28125 36103 ft 446 kts 316°
2026-04-22 12:12 53.30441 19.20243 36129 ft 445 kts 316°
2026-04-22 12:13 53.34433 19.12456 36139 ft 438 kts 316°
2026-04-22 12:13 53.38418 19.04738 36152 ft 438 kts 316°
2026-04-22 12:14 53.42414 18.96993 36147 ft 439 kts 316°
2026-04-22 12:14 53.46408 18.89224 36124 ft 440 kts 316°
2026-04-22 12:15 53.50401 18.81430 36135 ft 441 kts 316°
2026-04-22 12:15 53.54256 18.73377 36133 ft 444 kts 312°
2026-04-22 12:16 53.57851 18.64913 36147 ft 445 kts 311°
2026-04-22 12:16 53.61418 18.56382 36142 ft 446 kts 311°
2026-04-22 12:17 53.65005 18.47860 36124 ft 446 kts 311°
2026-04-22 12:17 53.67996 18.40780 36130 ft 446 kts 311°
2026-04-22 12:18 53.71591 18.32265 36141 ft 445 kts 311°
2026-04-22 12:18 53.75180 18.23736 36144 ft 446 kts 311°
2026-04-22 12:19 53.78764 18.15189 36153 ft 446 kts 311°
2026-04-22 12:19 53.82346 18.06616 36147 ft 446 kts 311°
2026-04-22 12:20 53.85919 17.98035 36147 ft 446 kts 310°
2026-04-22 12:20 53.89490 17.89429 36157 ft 446 kts 310°
2026-04-22 12:21 53.93056 17.80806 36167 ft 446 kts 310°
2026-04-22 12:21 53.96617 17.72163 36152 ft 447 kts 311°
2026-04-22 12:22 54.00170 17.63510 36166 ft 447 kts 310°
2026-04-22 12:22 54.03719 17.54840 36160 ft 447 kts 310°
2026-04-22 12:23 54.07239 17.46208 36171 ft 447 kts 310°
2026-04-22 12:23 54.10803 17.37440 36176 ft 447 kts 310°
2026-04-22 12:24 54.14320 17.28757 36190 ft 448 kts 310°
2026-04-22 12:24 54.17855 17.19998 36188 ft 448 kts 310°
2026-04-22 12:25 54.21385 17.11222 36192 ft 448 kts 310°
2026-04-22 12:25 54.24908 17.02431 36196 ft 449 kts 310°
2026-04-22 12:26 54.28432 16.93605 36209 ft 449 kts 310°
2026-04-22 12:26 54.31956 16.84751 36206 ft 450 kts 310°
2026-04-22 12:27 54.35473 16.75880 36195 ft 450 kts 310°
2026-04-22 12:27 54.38984 16.66991 36210 ft 450 kts 310°
2026-04-22 12:28 54.42493 16.58082 36221 ft 451 kts 310°
2026-04-22 12:28 54.46001 16.49140 36222 ft 452 kts 310°
2026-04-22 12:29 54.49510 16.40166 36216 ft 453 kts 310°
2026-04-22 12:29 54.53019 16.31156 36219 ft 453 kts 310°
2026-04-22 12:30 54.58276 16.17595 36217 ft 454 kts 309°
2026-04-22 12:31 54.61779 16.08520 36217 ft 455 kts 309°
2026-04-22 12:31 54.65278 15.99420 36213 ft 456 kts 309°
2026-04-22 12:32 54.68779 15.90283 36211 ft 456 kts 309°
2026-04-22 12:32 54.72297 15.81067 35371 ft 457 kts 309°
2026-04-22 12:32 54.74036 15.76490 34908 ft 454 kts 310°
2026-04-22 12:33 54.75740 15.72000 34476 ft 451 kts 310°
2026-04-22 12:33 54.77456 15.67472 33946 ft 449 kts 311°
2026-04-22 12:33 54.79166 15.62958 33490 ft 446 kts 310°
2026-04-22 12:33 54.80858 15.58481 33052 ft 442 kts 310°
2026-04-22 12:34 54.82534 15.54037 32630 ft 438 kts 310°
2026-04-22 12:34 54.84194 15.49626 32214 ft 435 kts 309°
2026-04-22 12:34 54.85837 15.45257 31806 ft 431 kts 309°
2026-04-22 12:34 54.87465 15.40919 31401 ft 427 kts 308°
2026-04-22 12:35 54.89077 15.36620 30990 ft 423 kts 308°
2026-04-22 12:35 54.90675 15.32348 30608 ft 420 kts 307°
2026-04-22 12:35 54.92269 15.28143 30336 ft 412 kts 309°
2026-04-22 12:35 54.93905 15.24122 30033 ft 404 kts 310°
2026-04-22 12:36 54.95556 15.20214 29730 ft 398 kts 311°
2026-04-22 12:36 54.97194 15.16376 29439 ft 393 kts 311°
2026-04-22 12:36 54.98816 15.12571 29153 ft 390 kts 311°
2026-04-22 12:36 55.00431 15.08764 28887 ft 392 kts 310°
2026-04-22 12:37 55.02050 15.04928 28618 ft 395 kts 310°
2026-04-22 12:37 55.03669 15.01068 28344 ft 394 kts 310°
2026-04-22 12:37 55.05212 14.97128 27908 ft 396 kts 302°
2026-04-22 12:37 55.06444 14.92813 27401 ft 396 kts 297°
2026-04-22 12:38 55.07565 14.88442 26944 ft 393 kts 296°
2026-04-22 12:38 55.08652 14.84089 26526 ft 390 kts 296°
2026-04-22 12:38 55.09731 14.79775 26110 ft 386 kts 296°
2026-04-22 12:38 55.10810 14.75506 25709 ft 382 kts 296°
2026-04-22 12:39 55.11889 14.71282 25305 ft 379 kts 296°
2026-04-22 12:39 55.14032 14.62951 24506 ft 373 kts 296°
2026-04-22 12:39 55.15095 14.58834 24106 ft 370 kts 296°
2026-04-22 12:40 55.16149 14.54744 23693 ft 367 kts 296°
2026-04-22 12:40 55.17181 14.50740 23230 ft 365 kts 296°
2026-04-22 12:40 55.18216 14.46717 22815 ft 360 kts 296°
2026-04-22 12:40 55.19238 14.42733 22392 ft 357 kts 296°
2026-04-22 12:41 55.20244 14.38798 22009 ft 352 kts 296°
2026-04-22 12:41 55.21241 14.34894 21596 ft 349 kts 296°
2026-04-22 12:41 55.22227 14.31035 21197 ft 346 kts 296°
2026-04-22 12:41 55.23204 14.27203 20790 ft 343 kts 296°
2026-04-22 12:42 55.24171 14.23409 20403 ft 340 kts 296°
2026-04-22 12:42 55.25129 14.19637 20006 ft 337 kts 297°
2026-04-22 12:42 55.26077 14.15899 19625 ft 335 kts 296°
2026-04-22 12:42 55.27018 14.12181 19233 ft 332 kts 297°
2026-04-22 12:43 55.27951 14.08490 18854 ft 330 kts 297°
2026-04-22 12:43 55.28878 14.04818 18448 ft 328 kts 297°
2026-04-22 12:43 55.29798 14.01165 17995 ft 326 kts 297°
2026-04-22 12:43 55.30713 13.97528 17590 ft 324 kts 297°
2026-04-22 12:44 55.31616 13.93930 17196 ft 321 kts 297°
2026-04-22 12:44 55.32510 13.90363 16792 ft 318 kts 297°
2026-04-22 12:44 55.33396 13.86823 16408 ft 315 kts 297°
2026-04-22 12:44 55.34274 13.83308 16040 ft 313 kts 297°
2026-04-22 12:45 55.35144 13.79820 15655 ft 310 kts 297°
2026-04-22 12:45 55.36006 13.76359 15280 ft 308 kts 297°
2026-04-22 12:45 55.36863 13.72913 14906 ft 306 kts 297°
2026-04-22 12:45 55.37714 13.69492 14525 ft 305 kts 297°
2026-04-22 12:46 55.38558 13.66091 14146 ft 303 kts 297°
2026-04-22 12:46 55.39398 13.62695 13734 ft 302 kts 297°
2026-04-22 12:46 55.40233 13.59318 13329 ft 300 kts 297°
2026-04-22 12:46 55.40788 13.55784 12924 ft 305 kts 277°
2026-04-22 12:47 55.40564 13.52088 12611 ft 306 kts 259°
2026-04-22 12:47 55.39989 13.48546 12243 ft 304 kts 256°
2026-04-22 12:47 55.39359 13.44999 11862 ft 303 kts 256°
2026-04-22 12:47 55.38718 13.41430 11478 ft 301 kts 256°
2026-04-22 12:48 55.38104 13.37977 11091 ft 299 kts 256°
2026-04-22 12:48 55.37492 13.34493 10730 ft 297 kts 256°
2026-04-22 12:48 55.36890 13.31035 10388 ft 295 kts 257°
2026-04-22 12:48 55.36302 13.27650 10260 ft 284 kts 257°
2026-04-22 12:49 55.35728 13.24335 9885 ft 284 kts 257°
2026-04-22 12:49 55.35157 13.21020 9515 ft 282 kts 257°
2026-04-22 12:49 55.34590 13.17737 9168 ft 280 kts 257°
2026-04-22 12:49 55.34026 13.14478 8829 ft 278 kts 257°
2026-04-22 12:50 55.33467 13.11246 8497 ft 276 kts 257°
2026-04-22 12:50 55.32911 13.08038 8149 ft 274 kts 257°
2026-04-22 12:50 55.32358 13.04849 7817 ft 272 kts 257°
2026-04-22 12:50 55.31807 13.01679 7484 ft 271 kts 257°
2026-04-22 12:51 55.31258 12.98531 7152 ft 269 kts 257°
2026-04-22 12:51 55.30712 12.95405 6829 ft 267 kts 257°
2026-04-22 12:51 55.30166 12.92288 6494 ft 266 kts 257°
2026-04-22 12:51 55.29965 12.89163 6218 ft 252 kts 282°
2026-04-22 12:52 55.30366 12.86223 6101 ft 247 kts 291°
2026-04-22 12:52 55.30909 12.83351 5966 ft 249 kts 293°
2026-04-22 12:52 55.31477 12.80462 5665 ft 253 kts 293°
2026-04-22 12:52 55.32045 12.77553 5418 ft 249 kts 292°
2026-04-22 12:53 55.32594 12.74700 5250 ft 244 kts 292°
2026-04-22 12:53 55.33130 12.71889 5106 ft 243 kts 292°
2026-04-22 12:53 55.33664 12.69072 4977 ft 244 kts 292°
2026-04-22 12:53 55.34198 12.66238 4831 ft 245 kts 292°
2026-04-22 12:54 55.34732 12.63397 4694 ft 245 kts 292°
2026-04-22 12:54 55.35265 12.60544 4553 ft 246 kts 292°
2026-04-22 12:54 55.35797 12.57696 4413 ft 245 kts 292°
2026-04-22 12:54 55.36322 12.54871 4276 ft 241 kts 292°
2026-04-22 12:55 55.36664 12.53025 4182 ft 237 kts 292°
2026-04-22 12:55 55.37320 12.49472 4002 ft 225 kts 291°
2026-04-22 12:55 55.37899 12.46989 3840 ft 215 kts 308°
2026-04-22 12:55 55.38866 12.45092 3720 ft 205 kts 315°
2026-04-22 12:56 55.39824 12.43285 3567 ft 199 kts 314°
2026-04-22 12:56 55.40742 12.41541 3454 ft 189 kts 315°
2026-04-22 12:56 55.41614 12.39880 3295 ft 180 kts 315°
2026-04-22 12:56 55.42467 12.38356 3151 ft 169 kts 327°
2026-04-22 12:57 55.43577 12.38042 3076 ft 173 kts 16°
2026-04-22 12:57 55.44638 12.39171 2979 ft 181 kts 27°
2026-04-22 12:57 55.45688 12.40412 2806 ft 179 kts 29°
2026-04-22 12:57 55.46680 12.41683 2674 ft 174 kts 30°
2026-04-22 12:58 55.47646 12.42925 2541 ft 168 kts 31°
2026-04-22 12:58 55.48568 12.44091 2383 ft 157 kts 29°
2026-04-22 12:58 55.49424 12.45233 2299 ft 154 kts 32°
2026-04-22 12:58 55.50254 12.46454 2189 ft 157 kts 33°
2026-04-22 12:59 55.51089 12.47731 2135 ft 162 kts 34°
2026-04-22 12:59 55.51929 12.49034 1942 ft 155 kts 36°
2026-04-22 12:59 55.52703 12.50245 1731 ft 141 kts 33°
2026-04-22 12:59 55.53410 12.51342 1556 ft 131 kts 32°
2026-04-22 13:00 55.54093 12.52397 1396 ft 132 kts 34°
2026-04-22 13:00 55.54791 12.53480 1193 ft 134 kts 34°
2026-04-22 13:00 55.55486 12.54560 1001 ft 132 kts 34°
2026-04-22 13:00 55.56173 12.55622 809 ft 133 kts 32°
2026-04-22 13:01 55.56881 12.56689 642 ft 133 kts 32°
2026-04-22 13:01 55.57587 12.57796 459 ft 135 kts 33°
2026-04-22 13:01 55.58259 12.58879 296 ft 130 kts 29°
2026-04-22 13:01 55.58971 12.59892 148 ft 133 kts 37°
2026-04-22 13:02 55.59642 12.61012 27 ft 125 kts 31°
2026-04-22 13:02 55.60192 12.61844 26 ft 83 kts 42°
2026-04-22 13:02 55.60529 12.62365 27 ft 55 kts 41°
2026-04-22 13:02 55.60783 12.62743 25 ft 42 kts 31°
2026-04-22 13:03 55.60993 12.62875 23 ft 17 kts 11°
2026-04-22 13:03 55.61107 12.62915 23 ft 16 kts 11°
2026-04-22 13:03 55.61197 12.63025 23 ft 16 kts 41°
2026-04-22 13:03 55.61277 12.63150 23 ft 15 kts 41°
2026-04-22 13:04 55.61354 12.63269 23 ft 14 kts 40°
2026-04-22 13:04 55.61428 12.63383 26 ft 14 kts 41°
2026-04-22 13:04 55.61499 12.63492 23 ft 13 kts 41°
2026-04-22 13:04 55.61567 12.63596 24 ft 13 kts 41°
2026-04-22 13:05 55.61633 12.63698 23 ft 12 kts 41°
2026-04-22 13:05 55.61677 12.63764 23 ft 12 kts 41°
2026-04-22 13:05 55.61739 12.63864 23 ft 12 kts 41°
2026-04-22 13:05 55.61801 12.63959 26 ft 12 kts 41°
2026-04-22 13:06 55.61862 12.64053 24 ft 12 kts 37°
2026-04-22 13:06 55.61936 12.64124 25 ft 12 kts 25°
2026-04-22 13:06 55.62014 12.64189 23 ft 12 kts 25°
2026-04-22 13:06 55.62091 12.64252 23 ft 12 kts 25°
2026-04-22 13:07 55.62169 12.64317 23 ft 13 kts 25°
2026-04-22 13:07 55.62259 12.64385 21 ft 14 kts 15°
2026-04-22 13:07 55.62353 12.64431 22 ft 14 kts 15°
2026-04-22 13:07 55.62444 12.64472 23 ft 13 kts 14°
2026-04-22 13:08 55.62526 12.64490 23 ft 8 kts 16°
2026-04-22 13:08 55.62557 12.64506 23 ft 2 kts 16°
2026-04-22 13:08 55.62563 12.64509 23 ft 1 kts 16°
2026-04-22 13:08 55.62564 12.64509 23 ft 0 kts 16°